TimeMST,TemperatureF,Dew PointF,Humidity,Sea Level PressureIn,VisibilityMPH,Wind Direction,Wind SpeedMPH,Gust SpeedMPH,PrecipitationIn,Events,Conditions,WindDirDegrees,DateUTC
12:57 AM,53.1,19.0,26,29.87,10.0,Calm,Calm,-,N/A,,Clear,0,2012-06-21 07:57:00
1:57 AM,54.0,19.0,25,29.85,10.0,SW,3.5,-,N/A,,Clear,220,2012-06-21 08:57:00
2:57 AM,48.9,19.0,31,29.86,9.0,Calm,Calm,-,N/A,,Clear,0,2012-06-21 09:57:00
3:57 AM,46.9,21.0,36,29.89,10.0,Calm,Calm,-,N/A,,Clear,0,2012-06-21 10:57:00
4:57 AM,45.0,19.9,37,29.91,10.0,NE,3.5,-,N/A,,Clear,50,2012-06-21 11:57:00
5:57 AM,46.9,21.0,36,29.92,10.0,Calm,Calm,-,N/A,,Clear,0,2012-06-21 12:57:00
6:57 AM,60.1,25.0,26,29.88,10.0,Calm,Calm,-,N/A,,Clear,0,2012-06-21 13:57:00
7:57 AM,72.0,17.1,12,29.87,10.0,SW,8.1,-,N/A,,Clear,220,2012-06-21 14:57:00
8:57 AM,77.0,17.1,10,29.89,10.0,South,12.7,-,N/A,,Clear,180,2012-06-21 15:57:00
9:57 AM,79.0,17.1,10,29.91,10.0,SW,12.7,-,N/A,,Clear,230,2012-06-21 16:57:00
10:57 AM,81.0,17.1,9,29.93,10.0,SSW,10.4,19.6,N/A,,Clear,210,2012-06-21 17:57:00
11:57 AM,82.9,17.1,9,29.93,10.0,South,15.0,21.9,N/A,,Clear,180,2012-06-21 18:57:00
12:57 PM,84.9,14.0,7,29.91,10.0,SW,16.1,24.2,N/A,,Clear,220,2012-06-21 19:57:00
1:57 PM,84.9,12.9,7,29.89,10.0,SW,17.3,24.2,N/A,,Clear,220,2012-06-21 20:57:00
2:57 PM,84.9,12.9,7,29.90,10.0,SSW,17.3,25.3,N/A,,Clear,210,2012-06-21 21:57:00
3:57 PM,84.9,16.0,8,29.89,10.0,SSW,20.7,26.5,N/A,,Clear,210,2012-06-21 22:57:00
4:57 PM,82.9,17.1,9,29.90,10.0,SSW,15.0,24.2,N/A,,Clear,200,2012-06-21 23:57:00
5:57 PM,81.0,14.0,8,29.88,10.0,SSW,15.0,25.3,N/A,,Clear,200,2012-06-22 00:57:00
6:57 PM,79.0,12.0,8,29.84,10.0,SW,16.1,-,N/A,,Clear,230,2012-06-22 01:57:00
7:57 PM,73.9,12.0,9,29.83,10.0,WSW,6.9,-,N/A,,Clear,240,2012-06-22 02:57:00
8:57 PM,71.1,12.9,11,29.83,10.0,WSW,10.4,-,N/A,,Clear,250,2012-06-22 03:57:00
9:57 PM,68.0,15.1,13,29.83,10.0,WSW,6.9,-,N/A,,Clear,250,2012-06-22 04:57:00
10:57 PM,64.0,17.1,16,29.83,10.0,West,4.6,-,N/A,,Clear,260,2012-06-22 05:57:00
11:57 PM,57.9,18.0,21,29.84,10.0,Calm,Calm,-,N/A,,Clear,0,2012-06-22 06:57:00